Location: Gairloch Mountain Observatory
(46.1383°N, 60.9640°W)
Time: 05:32:26
(UTC-04:00)

CENTAUR R/B - Visible Passes

Search period start: 11 December 2017 00:00
Search period end: 21 December 2017 00:00
Orbit: 822 x 1366 km, 63.5° (Epoch: 08 December)

Date Brightness Start Highest point End Pass type
(mag) Time Alt. Az. Time Alt. Az. Time Alt. Az.
11 Dec 3.7 18:24:47 10° NNW 18:31:32 33° NNE 18:32:51 32° NE visible
11 Dec 3.9 20:15:23 10° NW 20:20:03 42° NW 20:20:03 42° NW visible
11 Dec 5.5 22:07:04 10° WNW 22:07:16 11° WNW 22:07:16 11° WNW visible
12 Dec 4.0 17:36:27 10° NNW 17:42:37 27° NNE 17:46:32 19° ENE visible
12 Dec 3.2 19:27:09 10° NW 19:33:45 59° N 19:33:45 59° N visible
12 Dec 4.9 21:18:12 10° NW 21:20:58 22° WNW 21:20:58 22° WNW visible
13 Dec 4.2 16:47:58 10° NW 16:53:35 23° NNE 16:59:39 10° ENE visible
13 Dec 3.3 18:38:55 10° NNW 18:46:18 47° NE 18:47:34 44° ENE visible
13 Dec 4.0 20:29:39 10° NW 20:34:48 43° WNW 20:34:48 43° WNW visible
14 Dec 3.6 17:50:42 10° NNW 17:57:35 35° NNE 18:01:31 24° ENE visible
14 Dec 3.0 19:41:18 10° NW 19:48:45 81° WNW 19:48:45 81° WNW visible
14 Dec 5.1 21:33:14 10° WNW 21:35:59 18° WNW 21:35:59 18° WNW visible
15 Dec 3.9 17:02:24 10° NNW 17:08:42 28° NNE 17:15:31 10° E visible
15 Dec 3.0 18:53:03 10° NW 19:00:49 69° NE 19:02:54 52° ESE visible
15 Dec 4.3 20:44:13 10° NW 20:50:09 35° W 20:50:09 35° W visible
16 Dec 3.3 18:04:50 10° NW 18:12:18 50° NE 18:17:18 24° ESE visible
16 Dec 3.6 19:55:37 10° NW 20:03:17 54° WSW 20:04:34 50° SSW visible
16 Dec 5.5 21:50:08 10° W 21:51:51 11° W 21:51:51 11° W visible
17 Dec 3.6 17:16:37 10° NNW 17:23:37 38° NE 17:31:13 10° E visible
17 Dec 3.1 19:07:14 10° NW 19:15:06 79° SW 19:19:23 33° SSE visible
17 Dec 5.0 20:59:25 10° WNW 21:04:58 21° WSW 21:06:43 19° WSW visible
18 Dec 3.0 18:18:58 10° NW 18:26:47 75° NE 18:34:53 11° SE visible
18 Dec 4.5 20:10:16 10° NW 20:17:09 33° WSW 20:22:17 18° SSW visible
19 Dec 3.2 17:30:45 10° NW 17:38:18 54° NE 17:46:29 10° ESE visible
19 Dec 3.9 19:21:36 10° NW 19:29:10 49° WSW 19:37:11 10° S visible
20 Dec 3.5 16:42:32 10° NNW 16:49:39 40° NE 16:57:23 10° ESE visible
20 Dec 3.3 18:33:10 10° NW 18:41:01 73° WSW 18:49:26 10° SSE visible
20 Dec 5.3 20:25:42 10° WNW 20:30:45 18° WSW 20:35:58 10° SW visible
